ON7HN-2 Weather Reports


Display with metric or nautical units.
time (UTC)temp
F
wind
direction
speed
MPH
gust
MPH
rain 1hr
in
rain 24hr
in
rain mn
in
humidity
%
barometer
mb
20260507105006 58 358 0.0 0.0 0.00 0.00 0.00 62 1015.3
20260507104511 59 144 0.0 2.0 0.00 0.00 0.00 59 1015.2
20260507104006 58 253 2.0 2.0 0.00 0.00 0.00 61 1015.1
20260507103505 58 345 0.0 1.0 0.00 0.00 0.00 61 1015.3
20260507103010 58 229 2.0 4.0 0.00 0.00 0.00 61 1015.1
20260507102510 58 178 0.0 1.0 0.00 0.00 0.00 62 1015.2
20260507102007 59 291 1.0 1.0 0.00 0.00 0.00 62 1015.3
20260507101507 57 105 1.0 2.0 0.00 0.00 0.00 64 1015.2
20260507101006 56 303 1.0 2.0 0.00 0.00 0.00 65 1015.1
20260507100506 56 197 1.0 2.0 0.00 0.00 0.00 67 1015.2
20260507100005 56 332 0.0 0.0 0.00 0.00 0.00 66 1015.2
20260507095511 56 218 2.0 2.0 0.00 0.00 0.00 67 1015.0
20260507095006 56 355 1.0 2.0 0.00 0.00 0.00 67 1015.2
20260507094506 55 213 2.0 3.0 0.00 0.00 0.00 68 1015.0
20260507094011 55 235 0.0 1.0 0.00 0.00 0.00 70 1015.2
20260507093506 56 232 2.0 2.0 0.00 0.00 0.00 69 1015.3
20260507093006 56 29 0.0 0.0 0.00 0.00 0.00 68 1015.3
20260507092510 55 346 1.0 1.0 0.00 0.00 0.00 68 1015.0
20260507092011 55 3 0.0 1.0 0.00 0.00 0.00 70 1015.2
20260507091510 55 22 1.0 1.0 0.00 0.00 0.00 71 1015.1
20260507091006 55 13 0.0 0.0 0.00 0.00 0.00 71 1015.1
20260507090506 55 17 1.0 2.0 0.00 0.00 0.00 72 1015.0
20260507090006 54 9 0.0 1.0 0.00 0.00 0.00 74 1015.0
20260507085505 54 14 0.0 1.0 0.00 0.00 0.00 73 1014.8
20260507085010 54 43 0.0 0.0 0.00 0.00 0.00 75 1015.2
20260507084505 53 6 0.0 0.0 0.00 0.00 0.00 76 1015.1
20260507084006 53 32 0.0 1.0 0.00 0.00 0.00 77 1015.1
20260507083505 53 27 0.0 1.0 0.00 0.00 0.00 78 1015.2
20260507083011 53 15 1.0 1.0 0.00 0.00 0.00 79 1015.1
20260507082505 52 16 0.0 0.0 0.00 0.00 0.00 79 1015.0
20260507082005 52 14 0.0 1.0 0.00 0.00 0.00 79 1014.5
20260507081506 52 26 1.0 2.0 0.00 0.00 0.00 80 1014.9
20260507081006 52 31 0.0 1.0 0.00 0.00 0.00 82 1014.8
20260507080506 51 83 2.0 3.0 0.00 0.00 0.00 82 1014.7
20260507080010 51 64 1.0 2.0 0.00 0.00 0.00 84 1014.5
20260507075506 51 36 0.0 1.0 0.00 0.00 0.00 85 1014.9
20260507075005 51 4 1.0 2.0 0.00 0.00 0.00 85 1015.0
20260507074505 51 63 2.0 3.0 0.00 0.00 0.00 85 1014.8
20260507074005 51 6 0.0 1.0 0.00 0.00 0.00 86 1014.8
20260507073505 50 32 1.0 2.0 0.00 0.00 0.00 86 1014.6
20260507073005 50 27 0.0 1.0 0.00 0.00 0.00 86 1014.6
20260507072510 50 45 2.0 3.0 0.00 0.00 0.00 86 1014.8
20260507072006 50 19 0.0 1.0 0.00 0.00 0.00 86 1014.3
20260507071505 50 30 0.0 1.0 0.00 0.00 0.00 86 1014.5
20260507071005 50 28 1.0 2.0 0.00 0.00 0.00 86 1014.6
20260507070505 50 79 0.0 1.0 0.00 0.00 0.00 88 1014.4
20260507070010 50 25 0.0 1.0 0.00 0.00 0.00 91 1014.4
20260507065505 49 29 0.0 0.0 0.00 0.00 0.00 93 1014.5
20260507065005 49 14 0.0 0.0 0.00 0.00 0.00 93 1014.7
20260507064505 49 20 0.0 0.0 0.00 0.00 0.00 94 1014.2
20260507064005 49 13 0.0 0.0 0.00 0.00 0.00 94 1014.2
20260507063510 49 10 0.0 0.0 0.00 0.00 0.00 94 1014.4
20260507063005 48 358 0.0 0.0 0.00 0.00 0.00 94 1014.4
20260507062505 48 1 0.0 0.0 0.00 0.00 0.00 94 1014.6
20260507062005 48 2 0.0 0.0 0.00 0.00 0.00 94 1014.3
20260507061510 48 346 0.0 1.0 0.00 0.00 0.00 95 1014.2
20260507061005 48 10 0.0 0.0 0.00 0.00 0.00 95 1014.2
20260507060510 47 18 0.0 0.0 0.00 0.00 0.00 96 1014.2
20260507060005 47 22 0.0 0.0 0.00 0.00 0.00 96 1014.3
20260507055505 47 38 0.0 0.0 0.00 0.00 0.00 96 1013.9
20260507055005 47 19 0.0 1.0 0.00 0.00 0.00 96 1013.9
20260507054510 47 37 1.0 1.0 0.00 0.00 0.00 96 1014.0
20260507054005 47 30 1.0 2.0 0.00 0.00 0.00 96 1014.1
20260507053506 46 21 0.0 1.0 0.00 0.00 0.00 96 1014.0
20260507053011 46 28 0.0 0.0 0.00 0.00 0.00 96 1013.7
20260507052506 46 11 1.0 2.0 0.00 0.00 0.00 96 1013.9
20260507052006 47 19 0.0 1.0 0.00 0.00 0.00 96 1013.8
20260507051506 46 23 0.0 0.0 0.00 0.00 0.00 95 1013.9
20260507051006 46 16 0.0 1.0 0.00 0.00 0.00 95 1013.5
20260507050505 46 41 1.0 1.0 0.00 0.00 0.00 95 1013.5
20260507050005 46 13 0.0 0.0 0.00 0.00 0.00 95 1013.4
20260507045506 46 5 0.0 0.0 0.00 0.00 0.00 95 1013.5
20260507045006 46 352 0.0 0.0 0.00 0.00 0.00 95 1013.4
20260507044506 46 358 0.0 0.0 0.00 0.00 0.00 95 1013.5
20260507044006 46 2 0.0 0.0 0.00 0.00 0.00 95 1013.3
20260507043505 46 13 0.0 0.0 0.00 0.00 0.00 95 1013.3
20260507043005 46 13 0.0 0.0 0.00 0.00 0.00 95 1013.3
20260507042506 46 48 0.0 0.0 0.00 0.00 0.00 95 1013.2
20260507042010 46 328 0.0 0.0 0.00 0.00 0.00 95 1013.2
20260507041505 46 346 0.0 0.0 0.00 0.00 0.00 95 1013.4
20260507041005 46 39 0.0 0.0 0.00 0.00 0.00 95 1013.2
20260507040506 46 10 0.0 0.0 0.00 0.00 0.00 95 1013.2
20260507040011 46 10 0.0 0.0 0.00 0.00 0.00 95 1013.2
20260507035510 46 346 0.0 0.0 0.00 0.00 0.00 96 1013.0
20260507035005 45 17 0.0 0.0 0.00 0.00 0.00 96 1013.2
20260507034505 45 18 0.0 0.0 0.00 0.00 0.00 96 1013.1
20260507034005 45 353 0.0 0.0 0.00 0.00 0.00 96 1013.2
20260507033510 45 8 0.0 0.0 0.00 0.00 0.00 96 1012.9
20260507033005 45 2 0.0 0.0 0.00 0.00 0.00 96 1013.1
20260507032506 45 17 0.0 0.0 0.00 0.00 0.00 96 1012.9
20260507032006 45 353 0.0 0.0 0.00 0.00 0.00 96 1013.1
20260507031510 45 11 0.0 0.0 0.00 0.00 0.00 96 1012.9
20260507031010 45 12 0.0 0.0 0.00 0.00 0.00 96 1012.9
20260507030505 45 331 0.0 0.0 0.00 0.00 0.00 96 1012.7
20260507030006 45 339 0.0 0.0 0.00 0.00 0.00 96 1013.0
20260507025505 45 359 0.0 0.0 0.00 0.00 0.00 96 1012.6
20260507025005 45 6 0.0 0.0 0.00 0.00 0.00 96 1013.0
20260507024505 45 7 0.0 0.0 0.00 0.00 0.00 96 1012.9
20260507024005 45 13 0.0 0.0 0.00 0.00 0.00 96 1012.9
20260507023510 45 4 0.0 0.0 0.00 0.00 0.00 96 1012.9
20260507023005 45 332 0.0 0.0 0.00 0.00 0.00 96 1012.7
20260507022506 45 5 0.0 0.0 0.00 0.00 0.00 96 1012.8
20260507022006 45 32 0.0 0.0 0.00 0.00 0.00 97 1012.9
20260507021506 45 16 0.0 0.0 0.00 0.00 0.00 96 1013.0
20260507021006 45 357 0.0 0.0 0.00 0.00 0.00 97 1012.7
20260507020505 44 23 0.0 0.0 0.00 0.00 0.00 97 1012.9
20260507020010 44 9 0.0 0.0 0.00 0.00 0.00 97 1012.7
20260507015505 44 33 0.0 0.0 0.00 0.00 0.00 97 1012.5
20260507015005 44 337 0.0 0.0 0.00 0.00 0.00 96 1012.8
20260507014505 44 177 0.0 0.0 0.00 0.00 0.00 96 1012.3
20260507014005 44 221 0.0 0.0 0.00 0.00 0.00 96 1012.7
20260507013506 44 354 0.0 0.0 0.00 0.00 0.00 96 1012.6
20260507013011 44 5 0.0 0.0 0.00 0.00 0.00 96 1012.5
20260507012505 44 0 0.0 0.0 0.00 0.00 0.00 96 1012.7
20260507012010 44 10 0.0 0.0 0.00 0.00 0.00 97 1012.4
20260507011505 44 12 0.0 0.0 0.00 0.00 0.00 97 1012.7
20260507011005 44 14 0.0 0.0 0.00 0.00 0.00 97 1012.6
20260507010505 44 16 0.0 0.0 0.00 0.00 0.00 96 1012.4
20260507010005 44 27 0.0 0.0 0.00 0.00 0.00 96 1012.4
20260507005505 44 10 0.0 0.0 0.00 0.00 0.00 96 1012.5
20260507005006 44 11 0.0 0.0 0.00 0.00 0.00 96 1012.4
20260507004505 45 6 0.0 0.0 0.00 0.00 0.00 96 1012.4
20260507004006 45 351 0.0 0.0 0.00 0.00 0.00 96 1012.6
20260507003505 45 58 0.0 0.0 0.00 0.00 0.00 96 1012.6
20260507003005 44 265 0.0 0.0 0.00 0.00 0.00 95 1012.5
20260507002505 45 346 0.0 0.0 0.00 0.00 0.00 95 1012.7
20260507002005 45 3 0.0 0.0 0.00 0.00 0.00 96 1012.5
20260507001510 45 65 0.0 0.0 0.00 0.00 0.00 95 1012.6
20260507001005 45 17 0.0 0.0 0.00 0.00 0.00 95 1012.4
20260507000515 45 37 0.0 0.0 0.00 0.00 0.00 95 1012.4
20260507000005 45 24 0.0 0.0 0.00 0.00 0.00 95 1012.4
20260506235505 45 17 0.0 0.0 0.00 0.00 0.00 95 1012.2
20260506235005 45 19 0.0 0.0 0.00 0.00 0.00 95 1012.2
20260506234505 45 5 0.0 0.0 0.00 0.00 0.00 95 1012.3
20260506234006 45 8 0.0 0.0 0.00 0.00 0.00 95 1012.2
20260506233505 46 9 0.0 0.0 0.00 0.00 0.00 95 1012.3
20260506233006 46 5 0.0 0.0 0.00 0.00 0.00 95 1012.4
20260506232505 46 15 0.0 0.0 0.00 0.00 0.00 95 1012.3
20260506232005 46 358 0.0 0.0 0.00 0.00 0.00 95 1012.3
20260506231510 46 340 0.0 0.0 0.00 0.00 0.00 94 1012.2
20260506231006 46 333 0.0 0.0 0.00 0.00 0.00 94 1012.0
20260506230505 46 323 0.0 0.0 0.00 0.00 0.00 94 1012.2
20260506230005 47 6 0.0 0.0 0.00 0.00 0.00 95 1012.0
20260506225505 46 6 0.0 0.0 0.00 0.00 0.00 94 1012.1
20260506225005 47 7 0.0 0.0 0.00 0.00 0.00 94 1011.8
20260506224505 47 7 0.0 0.0 0.00 0.00 0.00 94 1012.1
20260506224010 47 7 0.0 0.0 0.00 0.00 0.00 94 1012.0
20260506223505 47 3 0.0 0.0 0.00 0.00 0.00 94 1012.0
20260506223005 47 4 0.0 0.0 0.00 0.00 0.00 94 1011.8
20260506222510 47 5 0.0 0.0 0.00 0.00 0.00 93 1011.9
20260506222005 47 358 0.0 0.0 0.00 0.00 0.00 93 1012.2
20260506221510 47 12 0.0 0.0 0.00 0.00 0.00 93 1011.8
20260506221006 48 12 0.0 0.0 0.00 0.00 0.00 92 1011.9
20260506220505 48 1 0.0 0.0 0.00 0.00 0.00 92 1011.9
20260506220005 48 4 0.0 0.0 0.00 0.00 0.00 92 1011.8
20260506215505 48 10 0.0 0.0 0.00 0.00 0.00 92 1011.9
20260506215006 48 2 0.0 0.0 0.00 0.00 0.00 91 1011.9
20260506214505 48 349 0.0 1.0 0.00 0.00 0.00 91 1011.8
20260506214006 49 346 1.0 2.0 0.00 0.00 0.00 91 1011.6
20260506213505 49 339 2.0 2.0 0.00 0.00 0.00 91 1011.7
20260506213005 49 351 1.0 1.0 0.00 0.00 0.00 91 1011.8
20260506212505 49 347 1.0 1.0 0.00 0.00 0.00 91 1011.4
20260506212006 49 350 1.0 2.0 0.00 0.00 0.00 90 1011.6
20260506211510 49 342 2.0 3.0 0.00 0.00 0.00 90 1011.7
20260506211005 49 12 1.0 1.0 0.00 0.00 0.00 90 1011.4
20260506210506 49 355 2.0 2.0 0.00 0.00 0.00 90 1011.4
20260506210005 50 339 4.0 4.0 0.00 0.00 0.00 89 1011.3
20260506205505 50 331 3.0 4.0 0.00 0.00 0.00 89 1011.4
20260506205005 50 339 2.0 3.0 0.00 0.00 0.00 89 1011.4
20260506204511 50 337 2.0 3.0 0.00 0.00 0.00 89 1011.4
20260506204006 50 340 3.0 4.0 0.00 0.00 0.00 89 1011.2
20260506203506 50 338 4.0 5.0 0.00 0.00 0.00 88 1011.1
20260506203005 50 355 2.0 3.0 0.00 0.00 0.00 88 1011.2
20260506202506 50 349 3.0 4.0 0.00 0.00 0.00 88 1011.1
20260506202005 50 336 3.0 3.0 0.00 0.00 0.00 87 1011.1
20260506201510 50 322 4.0 5.0 0.00 0.00 0.00 87 1011.1
20260506201006 51 326 4.0 5.0 0.00 0.00 0.00 86 1011.2
20260506200510 51 357 4.0 5.0 0.00 0.00 0.00 86 1011.0
20260506200005 51 347 3.0 4.0 0.00 0.00 0.00 86 1010.9
20260506195506 51 327 5.0 6.0 0.00 0.00 0.00 86 1010.9
20260506195005 51 333 4.0 5.0 0.00 0.00 0.00 85 1010.9
20260506194505 51 337 5.0 5.0 0.00 0.00 0.00 84 1010.8
20260506194005 52 340 5.0 5.0 0.00 0.00 0.00 84 1011.1
20260506193505 52 329 4.0 4.0 0.00 0.00 0.00 84 1010.9
20260506193005 52 333 4.0 5.0 0.00 0.00 0.00 84 1010.8
20260506192505 52 342 4.0 4.0 0.00 0.00 0.00 83 1010.6
20260506192006 52 317 6.0 8.0 0.00 0.00 0.00 83 1010.7
20260506191506 52 326 4.0 5.0 0.00 0.00 0.00 82 1010.6
20260506191011 52 338 5.0 6.0 0.00 0.00 0.00 82 1010.5
20260506190506 52 305 5.0 9.0 0.00 0.00 0.00 82 1010.4
20260506190006 52 343 3.0 4.0 0.00 0.00 0.00 82 1010.6
20260506185505 52 328 5.0 5.0 0.00 0.00 0.00 81 1010.6
20260506185005 52 339 6.0 8.0 0.00 0.00 0.00 80 1010.4
20260506184506 53 308 7.0 8.0 0.00 0.00 0.00 79 1010.4
20260506184011 53 335 7.0 10.0 0.00 0.00 0.00 79 1010.3
20260506183505 53 334 8.0 10.0 0.00 0.00 0.00 79 1010.1
20260506183006 53 340 7.0 8.0 0.00 0.00 0.00 77 1010.1
20260506182506 53 4 10.0 12.0 0.00 0.00 0.00 77 1010.3
20260506182011 54 327 8.0 10.0 0.00 0.00 0.00 77 1010.2
20260506181511 54 351 9.0 11.0 0.00 0.00 0.00 76 1010.0
20260506181005 54 339 8.0 10.0 0.00 0.00 0.00 76 1009.9
20260506180505 54 346 5.0 6.0 0.00 0.00 0.00 77 1009.7
20260506180006 54 308 5.0 5.0 0.00 0.00 0.00 75 1009.8
20260506175511 54 338 11.0 13.0 0.00 0.00 0.00 73 1009.7
20260506175006 54 302 4.0 5.0 0.00 0.00 0.00 78 1009.7
20260506174505 54 345 10.0 12.0 0.00 0.00 0.00 76 1009.7
20260506174005 54 329 7.0 9.0 0.00 0.00 0.00 78 1009.5
20260506173505 54 326 10.0 12.0 0.00 0.00 0.00 77 1009.6
20260506173006 54 332 11.0 14.0 0.00 0.00 0.00 77 1009.7
20260506172506 55 347 9.0 11.0 0.00 0.00 0.00 75 1009.5
20260506172005 55 14 6.0 9.0 0.00 0.00 0.00 75 1009.4
20260506171505 55 343 8.0 10.0 0.00 0.00 0.00 75 1009.2
20260506171006 55 42 9.0 10.0 0.00 0.00 0.00 73 1009.2
20260506170506 55 330 10.0 14.0 0.00 0.00 0.00 73 1009.2
20260506170006 56 327 6.0 8.0 0.00 0.00 0.00 72 1009.1
20260506165505 56 334 7.0 10.0 0.00 0.00 0.00 73 1009.2
20260506165005 56 335 9.0 10.0 0.00 0.00 0.00 70 1009.1
20260506164505 56 344 7.0 8.0 0.00 0.00 0.00 71 1009.1
20260506164005 56 23 7.0 10.0 0.00 0.00 0.00 69 1009.0
20260506163505 56 359 9.0 11.0 0.00 0.00 0.00 71 1009.1
20260506163005 56 329 7.0 9.0 0.00 0.00 0.00 71 1008.9
20260506162506 55 341 10.0 12.0 0.00 0.00 0.00 72 1009.0
20260506162005 56 337 10.0 13.0 0.00 0.00 0.00 72 1008.9
20260506161506 56 333 11.0 12.0 0.00 0.00 0.00 71 1008.9
20260506161010 56 343 10.0 11.0 0.00 0.00 0.00 73 1008.9
20260506160510 56 332 6.0 8.0 0.00 0.00 0.00 74 1008.9
20260506160005 56 332 8.0 10.0 0.00 0.00 0.00 73 1008.9
20260506155505 56 325 9.0 11.0 0.00 0.00 0.00 74 1008.8
20260506155005 57 11 7.0 11.0 0.00 0.00 0.00 73 1008.9
20260506154505 57 330 12.0 13.0 0.00 0.00 0.00 73 1008.8
20260506154006 57 345 7.0 10.0 0.00 0.00 0.00 73 1009.0
20260506153506 57 9 7.0 10.0 0.00 0.00 0.00 72 1008.9
20260506153006 58 332 5.0 6.0 0.00 0.00 0.00 72 1008.9
20260506152506 57 333 9.0 10.0 0.00 0.00 0.00 74 1008.9
20260506152011 56 330 8.0 10.0 0.00 0.00 0.00 73 1008.9
20260506151511 57 0 8.0 9.0 0.00 0.00 0.00 73 1008.8
20260506151011 57 332 10.0 11.0 0.00 0.00 0.00 73 1008.9
20260506150506 57 4 10.0 13.0 0.00 0.00 0.00 72 1008.8
20260506150006 57 329 9.0 10.0 0.00 0.00 0.00 71 1008.7
20260506145506 57 324 12.0 12.0 0.00 0.00 0.00 71 1008.9
20260506145005 58 327 8.0 9.0 0.00 0.00 0.00 72 1008.9
20260506144505 58 311 9.0 11.0 0.00 0.00 0.00 72 1008.8
20260506144006 58 351 9.0 11.0 0.00 0.00 0.00 71 1008.9
20260506143505 57 6 8.0 10.0 0.00 0.00 0.00 74 1008.6
20260506143005 57 305 9.0 10.0 0.00 0.00 0.00 73 1008.9
20260506142505 57 353 5.0 6.0 0.00 0.00 0.00 73 1008.9
20260506142005 57 332 7.0 9.0 0.00 0.00 0.00 72 1008.7
20260506141505 56 357 8.0 11.0 0.00 0.00 0.00 72 1008.9
20260506141010 56 329 10.0 12.0 0.00 0.00 0.00 73 1008.7
20260506140510 56 334 9.0 10.0 0.00 0.00 0.00 73 1008.8
20260506140005 56 323 8.0 11.0 0.00 0.00 0.00 73 1008.8
20260506135505 56 332 5.0 6.0 0.00 0.00 0.00 74 1008.9
20260506135005 56 358 8.0 11.0 0.00 0.00 0.00 74 1008.9
20260506134505 56 333 8.0 9.0 0.00 0.00 0.00 73 1008.9
20260506134005 56 2 6.0 8.0 0.00 0.00 0.00 74 1008.9
20260506133506 56 323 7.0 10.0 0.00 0.00 0.00 74 1008.9
20260506133005 56 354 8.0 10.0 0.00 0.00 0.00 75 1008.9
20260506132505 56 330 6.0 8.0 0.00 0.00 0.00 74 1009.0
20260506132005 56 351 6.0 8.0 0.00 0.00 0.00 76 1008.9
20260506131505 56 332 6.0 9.0 0.00 0.00 0.00 77 1008.9
20260506131005 55 343 7.0 9.0 0.00 0.00 0.00 77 1008.7
20260506130505 55 24 8.0 9.0 0.00 0.00 0.00 77 1008.9
20260506130005 55 15 5.0 6.0 0.00 0.00 0.00 78 1008.8
20260506125510 55 343 7.0 9.0 0.00 0.00 0.00 78 1008.8
20260506125011 55 286 5.0 6.0 0.00 0.00 0.00 79 1008.7
20260506124506 55 325 10.0 12.0 0.00 0.00 0.00 79 1008.7
20260506124010 55 312 7.0 8.0 0.00 0.00 0.00 78 1008.9
20260506123506 55 329 7.0 9.0 0.00 0.00 0.00 78 1008.8
20260506123005 55 323 10.0 12.0 0.00 0.00 0.00 77 1008.7
20260506122510 55 317 6.0 8.0 0.00 0.00 0.00 80 1008.9
20260506122005 55 354 6.0 8.0 0.00 0.00 0.00 79 1008.9
20260506121505 55 0 6.0 8.0 0.00 0.00 0.00 79 1008.8
20260506121005 55 11 7.0 9.0 0.00 0.00 0.00 79 1008.7
20260506120505 55 337 7.0 9.0 0.00 0.00 0.00 79 1008.8
20260506120005 55 347 7.0 8.0 0.00 0.00 0.00 81 1008.8
20260506115505 55 340 6.0 8.0 0.00 0.00 0.00 80 1008.8
20260506115005 54 20 5.0 8.0 0.00 0.00 0.00 81 1008.8
20260506114505 54 322 5.0 5.0 0.00 0.00 0.00 80 1008.9
20260506114005 54 327 7.0 8.0 0.00 0.00 0.00 79 1008.7
20260506113506 54 356 6.0 9.0 0.00 0.00 0.00 78 1008.9
20260506113006 54 335 6.0 8.0 0.00 0.00 0.00 80 1008.9
20260506112506 54 318 8.0 11.0 0.00 0.00 0.00 78 1008.8
20260506112005 55 343 6.0 8.0 0.00 0.00 0.00 79 1008.7
20260506111506 55 337 7.0 9.0 0.00 0.00 0.00 78 1008.9
20260506111006 54 33 4.0 4.0 0.00 0.00 0.00 78 1008.9
20260506110506 54 339 8.0 9.0 0.00 0.00 0.00 83 1008.7
20260506110006 54 13 5.0 6.0 0.00 0.00 0.00 84 1008.7
20260506105506 54 346 8.0 9.0 0.00 0.00 0.00 83 1008.8